Weather History for KICT - November, 2011

Change the Weather History Date:

Sunday, November 13, 2011

  Actual Average Record
Temperature  
Mean Temperature 54 °F 47 °F  
Max Temperature 66 °F 58 °F 79 °F (1999)
Min Temperature 41 °F 36 °F 4 °F (1940)
Degree Days  
Heating Degree Days 11 18  
Month to date heating degree days 209 201  
Since 1 July heating degree days 434 487  
Cooling Degree Days 0 0  
Month to date cooling degree days 0 0  
Year to date cooling degree days 2310 1684  
Growing Degree Days 4 (Base 50)    
Moisture  
Dew Point 36 °F    
Average Humidity 48    
Maximum Humidity 76    
Minimum Humidity 19    
Precipitation  
Precipitation 0.00 in 0.06 in 2.19 in (1909)
Month to date precipitation 2.19 0.73  
Year to date precipitation 21.24 30.74  
Snow  
Snow 0.00 in 0.00 in 0.10 in (1929)
Month to date snowfall 0.3 0.2  
Since 1 July snowfall 0.3 0.3  
Since 1 September snowfall 0.3 0.3  
Snow Depth 0.00 in    
Sea Level Pressure  
Sea Level Pressure 29.55 in    
Wind  
Wind Speed 5 mph (South)    
Max Wind Speed 22 mph    
Max Gust Speed 32 mph    
Visibility 10 miles    
Events      
T = Trace of Precipitation, MM = Missing Value Source: NWS Daily Summary

Daily Weather History Graph

Daily Weather History Graph

Search for Another Location

Airport or City:

Trip Planner

Search our weather history database for the weather conditions in past years. The results will help you decide how hot, cold, wet, or windy it might be!

Date:

Astronomy

Nov. 13, 2011 Rise Set
Actual Time 7:07 AM CST 5:20 PM CST
Civil Twilight 6:39 AM CST 5:48 PM CST
Nautical Twilight 6:07 AM CST 6:19 PM CST
Astronomical Twilight 5:36 AM CST 6:50 PM CST
Moon 7:32 PM CST (11/13) 9:38 AM CST (11/13)
Length of Visible Light 11h 08m
Length of Day
10h 12m
Waning Gibbous, 92% of the Moon is Illuminated
Nov 13
Waning Gibbous
Nov 18
Last Quarter
Nov 25
New
Dec 2
First Quarter
Dec 10
Full

Hourly Weather History & Observations

Time (CST) Temp. Windchill Dew Point Humidity Pressure Visibility Wind Dir Wind Speed Gust Speed Precip Events Conditions
12:53 AM 52.0 °F - 41.0 °F 66% 29.46 in 10.0 mi South 10.4 mph - N/A   Mostly Cloudy
1:53 AM 52.0 °F - 39.0 °F 61% 29.45 in 10.0 mi SSW 9.2 mph - N/A   Scattered Clouds
2:53 AM 48.9 °F - 39.0 °F 69% 29.44 in 10.0 mi South 11.5 mph - N/A   Partly Cloudy
3:53 AM 48.9 °F - 37.9 °F 66% 29.45 in 10.0 mi SSW 9.2 mph - N/A   Partly Cloudy
4:53 AM 48.0 °F - 37.9 °F 68% 29.51 in 10.0 mi North 18.4 mph 32.2 mph N/A   Clear
5:53 AM 44.1 °F 42.5 °F 35.1 °F 71% 29.53 in 10.0 mi WSW 3.5 mph - N/A   Clear
6:53 AM 43.0 °F - 36.0 °F 76% 29.56 in 10.0 mi Calm Calm - N/A   Partly Cloudy
7:53 AM 44.1 °F - 37.9 °F 79% 29.59 in 10.0 mi Calm Calm - N/A   Partly Cloudy
8:53 AM 57.0 °F - 37.0 °F 47% 29.61 in 10.0 mi North 4.6 mph - N/A   Partly Cloudy
9:53 AM 62.1 °F - 28.9 °F 29% 29.62 in 10.0 mi NNE 5.8 mph - N/A   Partly Cloudy
10:53 AM 64.0 °F - 21.9 °F 20% 29.63 in 10.0 mi Calm Calm - N/A   Partly Cloudy
11:53 AM 66.0 °F - 23.0 °F 20% 29.61 in 10.0 mi NNE 5.8 mph - N/A   Scattered Clouds
12:53 PM 64.9 °F - 23.0 °F 20% 29.60 in 10.0 mi Calm Calm - N/A   Mostly Cloudy
1:53 PM 64.9 °F - 25.0 °F 22% 29.59 in 10.0 mi Calm Calm - N/A   Mostly Cloudy
2:53 PM 64.9 °F - 25.0 °F 22% 29.58 in 10.0 mi Calm Calm - N/A   Mostly Cloudy
3:53 PM 64.9 °F - 35.1 °F 33% 29.58 in 10.0 mi Calm Calm - N/A   Mostly Cloudy
4:53 PM 59.0 °F - 36.0 °F 42% 29.60 in 10.0 mi SW 3.5 mph - N/A   Overcast
5:53 PM 57.9 °F - 39.9 °F 51% 29.59 in 10.0 mi Calm Calm - N/A   Overcast
6:53 PM 54.0 °F - 44.1 °F 69% 29.60 in 10.0 mi SE 5.8 mph - N/A   Mostly Cloudy
7:53 PM 52.0 °F - 43.0 °F 71% 29.57 in 10.0 mi ESE 3.5 mph - N/A   Overcast
8:53 PM 50.0 °F - 43.0 °F 77% 29.55 in 10.0 mi SSE 4.6 mph - N/A   Mostly Cloudy
9:53 PM 52.0 °F - 43.0 °F 71% 29.54 in 10.0 mi SSE 3.5 mph - N/A   Mostly Cloudy
10:53 PM 52.0 °F - 43.0 °F 71% 29.51 in 10.0 mi SSE 3.5 mph - N/A   Overcast
11:53 PM 54.0 °F - 45.0 °F 72% 29.49 in 10.0 mi South 11.5 mph - N/A   Overcast